Location: Cassagne
(43.1218°N, 0.9901°E)
Time: 08:27:28
(UTC+00:00)

PSLV R/B - Pass Details

Date: 17 February 2020
Orbit: 505 x 578 km, 97.8° (Epoch: 31 March)

Event Time Altitude Azimuth Distance (km) Brightness Sun altitude
Rises 05:23:10 0° 9° (N) 2,622 7.4 -16.8°
Reaches altitude 10° 05:25:16 10° 6° (N) 1,737 6.4 -16.4°
Maximum altitude 05:28:58 63° 285° (WNW) 580 3.6 -15.7°
Drops below altitude 10° 05:32:41 10° 205° (SSW) 1,752 6.2 -15.1°
Sets 05:34:48 0° 202° (SSW) 2,646 7.1 -14.7°
